Strathmore
DateTemperatureDew Point
09/05 - 09:45 PM65.5°55.0°
09/05 - 09:30 PM66.2°55.8°
09/05 - 09:15 PM66.1°55.3°
09/05 - 09:00 PM66.1°58.1°
09/05 - 08:45 PM66.7°58.6°
09/05 - 08:30 PM67.7°58.4°
09/05 - 08:15 PM68.8°58.4°
09/05 - 08:00 PM70.0°58.1°
09/05 - 07:45 PM71.1°57.2°
09/05 - 07:30 PM72.0°57.8°
09/05 - 07:15 PM73.6°59.2°
09/05 - 07:00 PM76.0°60.6°
09/05 - 06:45 PM78.9°59.7°
09/05 - 06:30 PM81.7°58.0°
09/05 - 06:15 PM83.6°56.6°
09/05 - 06:00 PM85.0°55.2°
09/05 - 05:45 PM85.8°54.5°
09/05 - 05:30 PM86.8°54.4°
09/05 - 05:15 PM87.4°53.3°
09/05 - 05:00 PM88.1°54.1°
09/05 - 04:45 PM88.5°54.7°
09/05 - 04:30 PM88.8°54.6°
09/05 - 04:15 PM90.0°56.7°
09/05 - 04:00 PM90.1°57.0°
09/05 - 03:45 PM89.7°56.7°
09/05 - 03:30 PM90.1°57.1°
09/05 - 03:15 PM90.0°57.5°
09/05 - 03:00 PM89.8°58.7°
09/05 - 02:45 PM88.9°59.4°
09/05 - 02:30 PM88.2°58.7°
09/05 - 02:15 PM88.4°59.1°
09/05 - 02:00 PM88.1°59.4°
09/05 - 01:45 PM87.7°59.1°
09/05 - 01:30 PM86.6°58.6°
09/05 - 01:15 PM86.4°58.0°
09/05 - 01:00 PM86.5°58.6°
09/05 - 12:45 PM85.6°58.4°
09/05 - 12:30 PM84.3°58.0°
09/05 - 12:15 PM84.2°58.1°
09/05 - 12:00 PM83.4°57.6°
09/05 - 11:45 AM83.8°58.1°
09/05 - 11:30 AM82.2°57.5°
09/05 - 11:15 AM81.4°57.3°
09/05 - 11:00 AM81.2°57.3°
09/05 - 10:45 AM79.5°56.4°
09/05 - 10:30 AM78.7°56.6°
09/05 - 10:15 AM77.0°56.6°
09/05 - 10:00 AM76.3°56.7°
09/05 - 09:45 AM76.2°57.0°
09/05 - 09:30 AM74.4°57.1°
09/05 - 09:15 AM73.6°57.3°
09/05 - 09:00 AM72.0°57.4°
09/05 - 08:45 AM70.1°57.0°
09/05 - 08:30 AM68.4°56.6°
09/05 - 08:15 AM66.8°56.3°
09/05 - 08:00 AM65.5°56.3°
09/05 - 07:45 AM63.8°56.2°
09/05 - 07:30 AM61.8°56.6°
09/05 - 07:15 AM58.6°58.2°
09/05 - 07:00 AM57.1°57.1°
09/05 - 06:45 AM55.9°55.9°
09/05 - 06:30 AM54.9°54.9°
09/05 - 06:15 AM54.9°54.9°
09/05 - 06:00 AM54.9°54.9°
09/05 - 05:45 AM54.9°54.9°
09/05 - 05:30 AM55.1°55.1°
09/05 - 05:15 AM55.2°55.2°
09/05 - 05:00 AM55.3°55.3°
09/05 - 04:45 AM55.5°55.4°
09/05 - 04:30 AM55.7°55.5°
09/05 - 04:15 AM56.0°55.7°
09/05 - 04:00 AM56.2°55.8°
09/05 - 03:45 AM56.5°56.0°
09/05 - 03:30 AM57.1°56.6°
09/05 - 03:15 AM57.2°56.8°
09/05 - 03:00 AM57.5°57.0°
09/05 - 02:45 AM57.8°57.3°
09/05 - 02:30 AM58.1°57.7°
09/05 - 02:15 AM58.4°57.8°
09/05 - 02:00 AM58.6°57.9°
09/05 - 01:45 AM59.1°58.2°
09/05 - 01:30 AM59.5°58.4°
09/05 - 01:15 AM59.8°58.4°
09/05 - 01:00 AM60.1°58.3°
09/05 - 12:45 AM60.7°58.6°
09/05 - 12:30 AM61.1°58.6°
09/05 - 12:15 AM61.4°58.2°
09/05 - 12:00 AM61.7°58.2°
09/04 - 11:45 PM61.6°59.1°
09/04 - 11:30 PM61.8°59.3°
09/04 - 11:15 PM62.2°59.6°
09/04 - 11:00 PM62.5°59.4°
09/04 - 10:45 PM63.2°59.5°
09/04 - 10:30 PM63.9°59.4°
09/04 - 10:15 PM64.5°58.9°
09/04 - 10:00 PM65.1°58.6°
09/04 - 09:45 PM65.5°58.7°
09/04 - 09:30 PM65.8°58.1°
09/04 - 09:15 PM66.1°58.6°
09/04 - 09:00 PM66.1°58.3°
09/04 - 08:45 PM66.5°60.4°
09/04 - 08:30 PM67.2°60.3°
09/04 - 08:15 PM68.0°60.9°
09/04 - 08:00 PM69.0°61.0°
09/04 - 07:45 PM70.2°60.8°
09/04 - 07:30 PM71.6°60.2°
09/04 - 07:15 PM73.3°60.2°
09/04 - 07:00 PM75.3°60.3°
09/04 - 06:45 PM77.2°59.4°
09/04 - 06:30 PM78.8°59.3°
09/04 - 06:15 PM80.1°58.8°
09/04 - 06:00 PM81.0°59.3°
09/04 - 05:45 PM81.7°59.4°
09/04 - 05:30 PM82.5°59.6°
09/04 - 05:15 PM83.0°59.9°
09/04 - 05:00 PM83.5°60.0°
09/04 - 04:45 PM83.9°60.1°
09/04 - 04:30 PM84.1°60.1°
09/04 - 04:15 PM85.2°60.6°
09/04 - 04:00 PM85.8°60.8°
09/04 - 03:45 PM85.2°60.2°
09/04 - 03:30 PM84.9°60.5°
09/04 - 03:15 PM85.2°60.5°
09/04 - 03:00 PM85.3°61.2°
09/04 - 02:45 PM85.4°61.3°
09/04 - 02:30 PM86.2°60.9°
09/04 - 02:15 PM85.5°61.1°
09/04 - 02:00 PM84.2°60.8°
09/04 - 01:45 PM83.5°60.6°
09/04 - 01:30 PM83.9°61.0°
09/04 - 01:15 PM82.6°60.7°
09/04 - 01:00 PM82.5°61.4°
09/04 - 12:45 PM81.6°61.3°
09/04 - 12:30 PM82.1°61.5°
09/04 - 12:15 PM80.9°61.1°
09/04 - 12:00 PM79.6°61.0°
09/04 - 11:45 AM79.7°61.4°
09/04 - 11:30 AM80.1°61.2°
09/04 - 11:15 AM79.6°61.4°
09/04 - 11:00 AM77.1°60.9°
09/04 - 10:45 AM77.6°61.1°
09/04 - 10:30 AM76.6°60.4°
09/04 - 10:15 AM76.6°60.8°
09/04 - 10:00 AM75.3°60.4°
09/04 - 09:45 AM74.4°60.2°
09/04 - 09:30 AM73.6°59.9°
09/04 - 09:15 AM71.9°58.9°
09/04 - 09:00 AM70.8°58.1°
09/04 - 08:45 AM69.3°57.7°
09/04 - 08:30 AM68.1°57.4°
09/04 - 08:15 AM66.7°57.3°
09/04 - 08:00 AM65.3°56.9°
09/04 - 07:45 AM63.9°56.4°
09/04 - 07:30 AM61.8°55.6°
09/04 - 07:15 AM58.7°56.7°
09/04 - 07:00 AM56.4°56.4°
09/04 - 06:45 AM55.3°55.3°
09/04 - 06:30 AM54.3°54.3°
09/04 - 06:15 AM53.9°53.9°
09/04 - 06:00 AM54.2°54.2°
09/04 - 05:45 AM54.5°54.5°
09/04 - 05:30 AM54.5°54.5°
09/04 - 05:15 AM54.7°54.6°
09/04 - 05:00 AM54.8°54.6°
09/04 - 04:45 AM55.1°54.8°
09/04 - 04:30 AM55.1°54.7°
09/04 - 04:15 AM55.5°55.1°
09/04 - 04:00 AM55.9°55.5°
09/04 - 03:45 AM56.3°55.7°
09/04 - 03:30 AM56.3°55.5°
09/04 - 03:15 AM56.6°55.6°
09/04 - 03:00 AM57.0°55.8°
09/04 - 02:45 AM57.5°56.1°
09/04 - 02:30 AM57.7°55.7°
09/04 - 02:15 AM58.0°55.3°
09/04 - 02:00 AM58.6°55.4°
09/04 - 01:45 AM59.2°55.2°
09/04 - 01:30 AM59.8°55.3°
09/04 - 01:15 AM60.2°55.6°
09/04 - 01:00 AM60.9°56.0°
09/04 - 12:45 AM61.5°55.4°
09/04 - 12:30 AM61.4°55.6°
09/04 - 12:15 AM61.7°55.6°
09/04 - 12:00 AM62.6°55.8°
09/03 - 11:45 PM63.1°55.9°
09/03 - 11:30 PM62.9°55.7°
09/03 - 11:15 PM62.6°55.8°
09/03 - 11:00 PM62.6°56.3°
09/03 - 10:45 PM62.7°57.5°
09/03 - 10:30 PM63.1°57.4°